Simultaneous Nadir Overpasses (SNOs) Predictions

Prediction of SNOs between GOES-16 and AQUA Satellite Orbit:

Table of predicted SNOs for the next 14.0 days since TLE Epoch: 1/8/2022
Index Date Time (GOES-16) GOES-16 Lat,Lon AQUA Lat,Lon Distance(km) Time Diff (sec)
1 01/08/2022 18:23:56 0.05, -75.19 0.79, -71.70 396.12 80
2 01/09/2022 06:45:12 -0.05, -75.18 0.28, -76.86 190.25 80
3 01/11/2022 06:30:20 -0.04, -75.20 -0.30, -73.89 148.19 80
4 01/11/2022 18:51:45 0.05, -75.21 -0.76, -79.09 441.25 80
5 01/13/2022 06:18:09 -0.03, -75.22 -0.94, -70.93 487.03 80
6 01/13/2022 18:39:33 0.04, -75.23 -0.17, -76.12 102.22 80
7 01/15/2022 18:30:02 0.03, -75.25 0.48, -73.16 237.22 80
8 01/16/2022 06:51:17 -0.03, -75.25 0.65, -78.31 348.46 80
9 01/18/2022 06:39:06 -0.02, -75.28 -0.00, -75.35 8.57 80
10 01/20/2022 06:24:14 -0.02, -75.31 -0.61, -72.39 331.74 80
11 01/20/2022 18:45:38 0.02, -75.32 -0.49, -77.58 257.38 80
